GW2123 Weather Reports


Display with metric or nautical units.
time (UTC)temp
F
wind
direction
speed
MPH
gust
MPH
rain 1hr
in
rain 24hr
in
rain mn
in
humidity
%
barometer
mb
20260502164040 46 0 0.0 0.0 0.00 0.00 0.00 36 1017.2
20260502163540 47 0 0.0 0.0 0.00 0.00 0.00 36 1017.2
20260502163053 47 0 0.0 0.0 0.00 0.00 0.00 37 1017.2
20260502162540 47 0 0.0 0.0 0.00 0.00 0.00 37 1017.4
20260502162042 46 0 0.0 0.0 0.00 0.00 0.00 39 1017.4
20260502161550 46 0 0.0 0.0 0.00 0.00 0.00 39 1017.4
20260502161041 46 0 0.0 0.0 0.00 0.00 0.00 41 1017.3
20260502160541 45 0 0.0 0.0 0.00 0.00 0.00 42 1017.4
20260502152041 44 0 0.0 0.0 0.00 0.00 0.00 47 1017.5
20260502151559 44 0 0.0 0.0 0.00 0.00 0.00 49 1017.5
20260502151042 43 0 0.0 0.0 0.00 0.00 0.00 49 1017.6
20260502150543 43 0 0.0 0.0 0.00 0.00 0.00 49 1017.6
20260502130542 39 0 0.0 0.0 0.00 0.00 0.00 36 1017.9
20260502123544 38 0 0.0 0.0 0.00 0.00 0.00 7 1018.1
20260502123102 38 0 0.0 0.0 0.00 0.00 0.00 1 1018.1
20260502122541 38 0 0.0 0.0 0.00 0.00 0.00 4 1018.1
20260502122041 37 0 0.0 0.0 0.00 0.00 0.00 2 1018.1
20260502121547 37 0 0.0 0.0 0.00 0.00 0.00 100 1018.0
20260502121042 37 0 0.0 0.0 0.00 0.00 0.00 100 1018.1
20260502120541 36 0 0.0 0.0 0.00 0.00 0.00 100 1018.1
20260502115541 36 0 0.0 0.0 0.00 0.00 0.00 100 1018.0
20260502115041 35 0 0.0 0.0 0.00 0.00 0.00 100 1018.0
20260502114555 34 0 0.0 0.0 0.00 0.00 0.00 100 1018.0
20260502114041 34 0 0.0 0.0 0.00 0.00 0.00 100 1018.0
20260502113541 33 0 0.0 0.0 0.00 0.00 0.00 100 1017.9
20260502113052 33 0 0.0 0.0 0.00 0.00 0.00 100 1017.8
20260502112540 32 0 0.0 0.0 0.00 0.00 0.00 100 1017.8
20260502112041 32 0 0.0 0.0 0.00 0.00 0.00 100 1017.8
20260502111555 32 0 0.0 0.0 0.00 0.00 0.00 100 1017.8
20260502111044 31 0 0.0 0.0 0.00 0.00 0.00 100 1017.8
20260502110541 31 0 0.0 0.0 0.00 0.00 0.00 100 1017.8
20260502110052 31 0 0.0 0.0 0.00 0.00 0.00 100 1017.7
20260502105543 31 0 0.0 0.0 0.00 0.00 0.00 100 1017.7
20260502105041 31 0 0.0 0.0 0.00 0.00 0.00 100 1017.7
20260502104550 31 0 0.0 0.0 0.00 0.00 0.00 100 1017.7
20260502104041 32 0 0.0 0.0 0.00 0.00 0.00 100 1017.6
20260502103544 32 0 0.0 0.0 0.00 0.00 0.00 100 1017.7
20260502103101 32 0 0.0 0.0 0.00 0.00 0.00 100 1017.6
20260502102541 32 0 0.0 0.0 0.00 0.00 0.00 100 1017.6
20260502102044 32 0 0.0 0.0 0.00 0.00 0.00 100 1017.6
20260502101603 32 0 0.0 0.0 0.00 0.00 0.00 100 1017.5
20260502101041 32 0 0.0 0.0 0.00 0.00 0.00 100 1017.5
20260502100541 32 0 0.0 0.0 0.00 0.00 0.00 100 1017.6
20260502100115 32 0 0.0 0.0 0.00 0.00 0.00 100 1017.5
20260502091047 34 0 0.0 0.0 0.00 0.00 0.00 100 1017.3
20260502090543 34 0 0.0 0.0 0.00 0.00 0.00 100 1017.3
20260502090112 34 0 0.0 0.0 0.00 0.00 0.00 100 1017.3
20260502071037 38 0 0.0 0.0 0.00 0.00 0.00 27 1017.1
20260502070542 38 0 0.0 0.0 0.00 0.00 0.00 29 1017.2
20260502070054 38 0 0.0 0.0 0.00 0.00 0.00 30 1017.2
20260502065543 38 0 0.0 0.0 0.00 0.00 0.00 34 1017.2
20260502065041 38 0 0.0 0.0 0.00 0.00 0.00 34 1017.3
20260502064600 38 0 0.0 0.0 0.00 0.00 0.00 34 1017.3
20260502064042 38 0 0.0 0.0 0.00 0.00 0.00 35 1017.3
20260502063543 38 0 0.0 0.0 0.00 0.00 0.00 34 1017.3
20260502063054 38 0 0.0 0.0 0.00 0.00 0.00 35 1017.3
20260502062540 38 0 0.0 0.0 0.00 0.00 0.00 35 1017.3
20260502062042 38 0 0.0 0.0 0.00 0.00 0.00 36 1017.3
20260502061609 38 0 0.0 0.0 0.00 0.00 0.00 38 1017.4
20260502061041 38 0 0.0 0.0 0.00 0.00 0.00 41 1017.4
20260502060541 38 0 0.0 0.0 0.00 0.00 0.00 40 1017.3
20260502060053 38 0 0.0 0.0 0.00 0.00 0.00 42 1017.4
20260502055538 38 0 0.0 0.0 0.00 0.00 0.00 43 1017.4
20260502055038 38 0 0.0 0.0 0.00 0.00 0.00 43 1017.3
20260502054550 38 0 0.0 0.0 0.00 0.00 0.00 43 1017.4
20260502054037 38 0 0.0 0.0 0.00 0.00 0.00 44 1017.4
20260502053542 38 0 0.0 0.0 0.00 0.00 0.00 45 1017.2
20260502053101 38 0 0.0 0.0 0.00 0.00 0.00 45 1017.3
20260502052541 39 0 0.0 0.0 0.00 0.00 0.00 44 1017.3
20260502052040 39 0 0.0 0.0 0.00 0.00 0.00 45 1017.3
20260502051550 39 0 0.0 0.0 0.00 0.00 0.00 45 1017.2
20260502051041 39 0 0.0 0.0 0.00 0.00 0.00 46 1017.2
20260502050541 39 0 0.0 0.0 0.00 0.00 0.00 48 1017.2
20260502050049 39 0 0.0 0.0 0.00 0.00 0.00 48 1017.2
20260502045544 39 0 0.0 0.0 0.00 0.00 0.00 48 1017.1
20260502045038 39 0 0.0 0.0 0.00 0.00 0.00 48 1017.1
20260502044549 39 0 0.0 0.0 0.00 0.00 0.00 47 1017.0
20260502044038 39 0 0.0 0.0 0.00 0.00 0.00 45 1017.0
20260502043537 39 0 0.0 0.0 0.00 0.00 0.00 47 1017.1
20260502043053 39 0 0.0 0.0 0.00 0.00 0.00 47 1017.0
20260502042539 39 0 0.0 0.0 0.00 0.00 0.00 47 1017.0
20260502042042 40 0 0.0 0.0 0.00 0.00 0.00 47 1017.0
20260502041553 40 0 0.0 0.0 0.00 0.00 0.00 45 1017.0
20260502041041 40 0 0.0 0.0 0.00 0.00 0.00 47 1016.9
20260502040537 40 0 0.0 0.0 0.00 0.00 0.00 47 1016.8
20260502040054 40 0 0.0 0.0 0.00 0.00 0.00 48 1016.9
20260502035541 40 0 0.0 0.0 0.00 0.00 0.00 49 1016.8
20260502035041 40 0 0.0 0.0 0.00 0.00 0.00 49 1016.9
20260502034550 40 0 0.0 0.0 0.00 0.00 0.00 49 1016.8
20260502034042 40 0 0.0 0.0 0.00 0.00 0.00 50 1016.8
20260502033541 40 0 0.0 0.0 0.00 0.00 0.00 50 1016.9
20260502033052 40 0 0.0 0.0 0.00 0.00 0.00 51 1016.9
20260502032541 40 0 0.0 0.0 0.00 0.00 0.00 51 1016.9
20260502032041 40 0 0.0 0.0 0.00 0.00 0.00 51 1016.8
20260502031555 40 0 0.0 0.0 0.00 0.00 0.00 52 1016.8
20260502031042 40 0 0.0 0.0 0.00 0.00 0.00 52 1016.8
20260502030538 40 0 0.0 0.0 0.00 0.00 0.00 52 1016.7
20260502030050 40 0 0.0 0.0 0.00 0.00 0.00 52 1016.7
20260502025541 40 0 0.0 0.0 0.00 0.00 0.00 52 1016.7
20260502025044 40 0 0.0 0.0 0.00 0.00 0.00 53 1016.6
20260502024559 40 0 0.0 0.0 0.00 0.00 0.00 52 1016.6
20260502024038 40 0 0.0 0.0 0.00 0.00 0.00 53 1016.6
20260502023542 41 0 0.0 0.0 0.00 0.00 0.00 53 1016.6
20260502023052 41 0 0.0 0.0 0.00 0.00 0.00 53 1016.6
20260502022540 41 0 0.0 0.0 0.00 0.00 0.00 53 1016.7
20260502022037 41 0 0.0 0.0 0.00 0.00 0.00 53 1016.7
20260502021551 41 0 0.0 0.0 0.00 0.00 0.00 53 1016.7
20260502021038 41 0 0.0 0.0 0.00 0.00 0.00 53 1016.6
20260502020538 41 0 0.0 0.0 0.00 0.00 0.00 53 1016.5
20260502020051 41 0 0.0 7.0 0.00 0.00 0.00 53 1016.5
20260502015544 41 0 0.0 7.0 0.00 0.00 0.00 53 1016.4
20260502015041 41 248 0.0 3.0 0.00 0.00 0.00 53 1016.3
20260502014547 41 0 0.0 1.0 0.00 0.00 0.00 53 1016.3
20260502014041 41 0 0.0 0.0 0.00 0.00 0.00 53 1016.3
20260502013542 41 0 0.0 0.0 0.00 0.00 0.00 53 1016.2
20260502013045 41 0 0.0 0.0 0.00 0.00 0.00 53 1016.1
20260502012541 41 0 0.0 0.0 0.00 0.00 0.00 53 1016.2
20260502012041 41 0 0.0 0.0 0.00 0.00 0.00 53 1016.1
20260502011550 41 0 0.0 0.0 0.00 0.00 0.00 53 1016.0
20260502011041 41 0 0.0 0.0 0.00 0.00 0.00 52 1016.0
20260502010542 42 0 0.0 0.0 0.00 0.00 0.00 52 1015.9
20260502010048 42 0 0.0 0.0 0.00 0.00 0.00 52 1015.9
20260502005541 42 0 0.0 0.0 0.00 0.00 0.00 52 1015.8
20260502005041 42 0 0.0 0.0 0.00 0.00 0.00 53 1015.8
20260502004558 42 0 0.0 1.0 0.00 0.00 0.00 52 1015.8
20260502004039 42 0 0.0 1.0 0.00 0.00 0.00 52 1015.9
20260502003540 42 0 0.0 0.0 0.00 0.00 0.00 53 1015.8
20260502003045 42 0 0.0 1.0 0.00 0.00 0.00 51 1015.7
20260502002542 42 0 0.0 1.0 0.00 0.00 0.00 52 1015.7
20260502002042 42 0 0.0 0.0 0.00 0.00 0.00 52 1015.7
20260502001546 42 0 0.0 2.0 0.00 0.00 0.00 52 1015.6
20260502001040 42 0 0.0 5.0 0.00 0.00 0.00 50 1015.5
20260502000540 42 0 0.0 5.0 0.00 0.00 0.00 51 1015.5
20260502000051 43 0 0.0 1.0 0.00 0.00 0.00 51 1015.4
20260501235541 43 0 0.0 4.0 0.00 0.00 0.00 51 1015.4
20260501235040 43 0 0.0 4.0 0.00 0.00 0.00 52 1015.3
20260501234549 43 0 0.0 0.0 0.00 0.00 0.00 51 1015.4
20260501234042 43 0 0.0 8.0 0.00 0.00 0.00 51 1015.3
20260501233541 43 0 0.0 8.0 0.00 0.00 0.00 52 1015.3
20260501233046 43 236 1.0 6.0 0.00 0.00 0.00 51 1015.4
20260501232543 43 0 0.0 4.0 0.00 0.00 0.00 50 1015.2
20260501232041 43 0 0.0 4.0 0.00 0.00 0.00 51 1015.3
20260501231546 43 0 0.0 0.0 0.00 0.00 0.00 51 1015.2
20260501231041 43 0 0.0 1.0 0.00 0.00 0.00 51 1015.2
20260501230541 44 0 0.0 2.0 0.00 0.00 0.00 51 1015.1
20260501230058 44 0 0.0 2.0 0.00 0.00 0.00 51 1015.1
20260501225542 44 281 0.0 0.0 0.00 0.00 0.00 51 1015.1
20260501225041 44 0 0.0 0.0 0.00 0.00 0.00 51 1015.0
20260501224550 44 0 0.0 0.0 0.00 0.00 0.00 51 1015.0
20260501224040 44 0 0.0 5.0 0.00 0.00 0.00 51 1015.0
20260501223540 44 0 0.0 5.0 0.00 0.00 0.00 50 1015.0
20260501223054 44 0 0.0 7.0 0.00 0.00 0.00 50 1015.0
20260501222541 44 0 0.0 7.0 0.00 0.00 0.00 50 1015.0
20260501222042 44 0 0.0 7.0 0.00 0.00 0.00 49 1015.0
20260501221546 45 0 0.0 0.0 0.00 0.00 0.00 49 1014.9
20260501221043 45 0 0.0 0.0 0.00 0.00 0.00 49 1014.8
20260501220542 45 0 0.0 0.0 0.00 0.00 0.00 47 1014.7
20260501220052 46 0 0.0 0.0 0.00 0.00 0.00 47 1014.6
20260501215543 46 0 0.0 2.0 0.00 0.00 0.00 46 1014.6
20260501215041 45 0 0.0 2.0 0.00 0.00 0.00 47 1014.6
20260501214554 45 0 0.0 2.0 0.00 0.00 0.00 47 1014.6
20260501214041 45 0 0.0 1.0 0.00 0.00 0.00 46 1014.6
20260501213543 45 0 0.0 1.0 0.00 0.00 0.00 48 1014.7
20260501213058 45 0 0.0 1.0 0.00 0.00 0.00 48 1014.6
20260501212542 46 0 0.0 0.0 0.00 0.00 0.00 47 1014.6
20260501212042 46 0 0.0 0.0 0.00 0.00 0.00 46 1014.5
20260501211622 46 0 0.0 0.0 0.00 0.00 0.00 46 1014.5
20260501211041 46 0 0.0 0.0 0.00 0.00 0.00 46 1014.5
20260501210541 46 0 0.0 3.0 0.00 0.00 0.00 46 1014.4
20260501210057 46 0 0.0 3.0 0.00 0.00 0.00 45 1014.4
20260501205542 46 0 0.0 0.0 0.00 0.00 0.00 46 1014.4
20260501205041 46 0 0.0 0.0 0.00 0.00 0.00 45 1014.3
20260501204633 46 0 0.0 0.0 0.00 0.00 0.00 45 1014.4
20260501204041 46 0 0.0 0.0 0.00 0.00 0.00 45 1014.3
20260501203542 47 0 0.0 0.0 0.00 0.00 0.00 46 1014.4
20260501203056 47 0 0.0 0.0 0.00 0.00 0.00 45 1014.4
20260501202542 47 0 0.0 0.0 0.00 0.00 0.00 45 1014.4
20260501202042 47 0 0.0 0.0 0.00 0.00 0.00 45 1014.5
20260501201553 47 0 0.0 0.0 0.00 0.00 0.00 46 1014.5
20260501201041 47 0 0.0 0.0 0.00 0.00 0.00 45 1014.4
20260501200541 47 0 0.0 0.0 0.00 0.00 0.00 45 1014.3
20260501200056 46 0 0.0 0.0 0.00 0.00 0.00 47 1014.3
20260501195541 46 0 0.0 0.0 0.00 0.00 0.00 46 1014.4
20260501195042 46 0 0.0 0.0 0.00 0.00 0.00 46 1014.4
20260501194558 46 0 0.0 0.0 0.00 0.00 0.00 46 1014.4
20260501194042 46 0 0.0 0.0 0.00 0.00 0.00 48 1014.4
20260501193541 46 0 0.0 0.0 0.00 0.00 0.00 47 1014.4
20260501193052 46 0 0.0 0.0 0.00 0.00 0.00 49 1014.4
20260501192544 45 0 0.0 0.0 0.00 0.00 0.00 48 1014.3
20260501192042 46 0 0.0 0.0 0.00 0.00 0.00 48 1014.4
20260501191600 46 0 0.0 0.0 0.00 0.00 0.00 48 1014.4
20260501191043 46 0 0.0 0.0 0.00 0.00 0.00 48 1014.3
20260501190542 46 0 0.0 0.0 0.00 0.00 0.00 50 1014.3
20260501190104 46 0 0.0 0.0 0.00 0.00 0.00 49 1014.3
20260501185544 45 0 0.0 0.0 0.00 0.00 0.00 51 1014.3
20260501185045 45 0 0.0 0.0 0.00 0.00 0.00 51 1014.2
20260501184553 45 0 0.0 0.0 0.00 0.00 0.00 50 1014.3
20260501184042 45 0 0.0 0.0 0.00 0.00 0.00 51 1014.2
20260501183544 45 0 0.0 0.0 0.00 0.00 0.00 51 1014.2
20260501183053 45 0 0.0 0.0 0.00 0.00 0.00 51 1014.2
20260501182545 46 0 0.0 0.0 0.00 0.00 0.00 51 1014.2
20260501182041 46 0 0.0 0.0 0.00 0.00 0.00 51 1014.2
20260501181555 46 0 0.0 0.0 0.00 0.00 0.00 51 1014.1
20260501181043 45 0 0.0 0.0 0.00 0.00 0.00 51 1014.1
20260501180542 45 0 0.0 0.0 0.00 0.00 0.00 51 1014.1
20260501180050 46 0 0.0 0.0 0.00 0.00 0.00 51 1014.1
20260501175540 46 0 0.0 0.0 0.00 0.00 0.00 51 1014.2
20260501175041 47 0 0.0 0.0 0.00 0.00 0.00 50 1014.2
20260501174557 46 0 0.0 0.0 0.00 0.00 0.00 51 1014.1
20260501174041 46 0 0.0 0.0 0.00 0.00 0.00 52 1014.2
20260501173541 45 0 0.0 0.0 0.00 0.00 0.00 51 1014.2
20260501173055 45 0 0.0 0.0 0.00 0.00 0.00 52 1014.2
20260501172542 45 0 0.0 0.0 0.00 0.00 0.00 52 1014.3
20260501172045 45 0 0.0 0.0 0.00 0.00 0.00 52 1014.3
20260501171552 46 0 0.0 0.0 0.00 0.00 0.00 52 1014.3